Terug naar catalogus

USA 197

ActiefMilitairGEO
NORAD 32287·PAYLOAD·🇺🇸 United States

Gelanceerd Nov 11, 2007 vanaf Cape Canaveral Space Force Station

Loading…

TLE

VersSource: Mike McCants

Epoch: Sep 15, 2026, 19:24 UTC

1 32287U 07054A   26258.80877724  .00000000  00000-0  00000-0 0    07
2 32287  11.0385  47.0436 0005207 200.7384 159.2525  1.00202077  5300

Volg USA 197 in realtime met AllMySat

Download on the App Store